Location: Home
(42.5358°N, 72.7383°W)
Time: 21:52:20
(UTC-04:00)

Vanguard 2 Rocket - Pass Details

Date: 18 December 2025
Orbit: 553 x 3286 km, 32.9° (Epoch: 19 May)

Event Time Altitude Azimuth Distance (km) Brightness Sun altitude
Rises 04:10:06 0° 197° (SSW) 6,378 11.1 -33.2°
Reaches altitude 10° 04:15:16 10° 185° (S) 5,706 10.9 -32.3°
Maximum altitude 04:28:38 25° 138° (SE) 4,995 11.0 -29.8°
Drops below altitude 10° 04:42:40 10° 93° (E) 6,079 12.1 -27.2°
Sets 04:48:18 0° 82° (E) 6,871 12.5 -26.2°
